www.pogodaiklimat.ru
ПОГОДА в Сеуте

Архив погоды в Сеуте (Испания)

Время
(UTC), дата
13 10.07
14 10.07
15 10.07
16 10.07
17 10.07
18 10.07
20 10.07
21 10.07
22 10.07
23 10.07
00 11.07
01 11.07
02 11.07
03 11.07
04 11.07
05 11.07
06 11.07
07 11.07
08 11.07
09 11.07
10 11.07
11 11.07
12 11.07
13 11.07
14 11.07
15 11.07
16 11.07
17 11.07
18 11.07
19 11.07
20 11.07
21 11.07
22 11.07
23 11.07
00 12.07
01 12.07
02 12.07
03 12.07
04 12.07
05 12.07
06 12.07
07 12.07
08 12.07
09 12.07
10 12.07
11 12.07
12 12.07
13 12.07
14 12.07
15 12.07
16 12.07
17 12.07
18 12.07
19 12.07
20 12.07
21 12.07
22 12.07
23 12.07
00 13.07
01 13.07
02 13.07
03 13.07
04 13.07
05 13.07
06 13.07
07 13.07
08 13.07
09 13.07
10 13.07
11 13.07
12 13.07
13 13.07
14 13.07
15 13.07
16 13.07
17 13.07
18 13.07
19 13.07
20 13.07
21 13.07
22 13.07
23 13.07
00 14.07
01 14.07
02 14.07
03 14.07
04 14.07
05 14.07
06 14.07
07 14.07
08 14.07
09 14.07
10 14.07
11 14.07
12 14.07
13 14.07
14 14.07
15 14.07
16 14.07
17 14.07
18 14.07
19 14.07
20 14.07
21 14.07
22 14.07
23 14.07
00 15.07
01 15.07
02 15.07
03 15.07
04 15.07
05 15.07
06 15.07
07 15.07
08 15.07
09 15.07
10 15.07
11 15.07
12 15.07
13 15.07
14 15.07
15 15.07
16 15.07
17 15.07
18 15.07
19 15.07
20 15.07
21 15.07
22 15.07
23 15.07
00 16.07
01 16.07
02 16.07
03 16.07
04 16.07
05 16.07
06 16.07
07 16.07
08 16.07
09 16.07
10 16.07
11 16.07
12 16.07
13 16.07
14 16.07
15 16.07
16 16.07
17 16.07
18 16.07
19 16.07
20 16.07
22 16.07
23 16.07
00 17.07
01 17.07
02 17.07
03 17.07
04 17.07
06 17.07
07 17.07
08 17.07
09 17.07
10 17.07
11 17.07
12 17.07
13 17.07
Ветер
(напр.,м/с)
Видим. Явления Облачность Т
(С)
Тd
(С)
f
(%)
Тe
(С)
Тes
(С)
Комфортность P
(гПа)
Po
(гПа)
Тmin
(С)
Tmax
(С)
R
(мм)
R24
(мм)
S
(см)
ЮВ 2 20 км н/о +30.1 +9.6 28 +30 +30 жарко 1017.2 1007.2 0.0
ЮВ 3 20 км н/о +30.4 +12.8 34 +31 +31 жарко 1016.7 1006.7
ЮВ 3 20 км н/о +29.3 +11.8 34 +30 +30 жарко 1016.2 1006.2 0.0
Ю 4 20 км н/о +28.1 +14.3 43 +30 +30 жарко 1015.8 1005.8
Ю 2 20 км н/о +28.3 +13.8 41 +30 +30 жарко 1015.6 1005.6
ЮВ 2 20 км дымка н/о +27.6 +16.2 50 +31 +31 душно 1015.7 1005.7 +30.9
Ю 2 20 км н/о +25.7 +17.1 59 +30 +30 душно 1015.7 1005.6
Ю 3 20 км н/о +24.9 +16.9 61 +29 +29 душно 1016.6 1006.5
СВ 1 20 км н/о +25.1 +15.4 55 +28 +28 жарко 1016.7 1006.6
В 1 20 км н/о +24.3 +16.0 60 +28 +28 душно 1016.6 1006.5
ЮЗ 2 20 км н/о +24.1 +15.6 59 +27 +27 жарко 1017.0 1006.8
ЮЗ 2 20 км н/о +24.6 +14.1 52 +27 +27 жарко 1016.5 1006.4
Ю 2 20 км н/о +23.4 +16.2 64 +28 +28 душно 1016.5 1006.3
Ю 2 20 км н/о +23.5 +15.8 62 +27 +27 душно 1016.6 1006.4
Ю 2 20 км н/о +23.4 +16.4 65 +28 +28 душно 1016.7 1006.5
ЮЗ 2 20 км н/о +22.5 +15.8 66 +27 +27 душно 1016.8 1006.6
Ю 1 20 км дымка н/о +22.5 +16.5 69 +27 +27 душно 1017.0 1006.8 +22.0 0.0
В 1 20 км н/о +24.2 +17.7 67 +28 +28 душно 1017.4 1007.3
ЮВ 2 20 км н/о +26.8 +18.1 59 +31 +31 душно 1017.3 1007.2
ЮВ 2 20 км н/о +27.2 +18.8 60 +32 +32 очень душно 1017.4 1007.4
ЮВ 2 20 км н/о +28.0 +19.2 59 +34 +34 очень душно 1017.3 1007.3
В 2 20 км н/о +29.1 +19.4 56 +35 +35 очень душно 1017.2 1007.2
ЮВ 3 20 км н/о +28.1 +17.9 54 +33 +33 очень душно 1017.2 1007.2
ЮВ 3 20 км н/о +29.5 +17.3 48 +34 +34 очень душно 1016.8 1006.8
ЮВ 2 20 км н/о +30.4 +15.7 41 +33 +33 душно 1016.2 1006.3
Ю 4 20 км н/о +28.9 +13.9 40 +31 +31 жарко 1015.8 1005.8
Ю 2 20 км н/о +29.3 +16.1 45 +32 +32 душно 1015.3 1005.3
Ю 2 20 км н/о +29.8 +18.3 50 +35 +35 очень душно 1014.8 1004.9
Ю 2 20 км н/о +29.1 +18.8 54 +34 +34 очень душно 1014.7 1004.7 +30.9
Ю 1 20 км н/о +29.1 +20.0 58 +35 +35 очень душно 1014.4 1004.5
ЮВ 1 20 км н/о +28.0 +18.4 56 +33 +33 очень душно 1014.4 1004.4
ЮЗ 2 20 км н/о +29.2 +13.4 38 +31 +31 жарко 1014.6 1004.6
З 3 20 км н/о +31.4 +15.0 37 +34 +34 душно 1014.4 1004.5
З 3 20 км н/о +32.2 +14.3 34 +34 +34 душно 1014.4 1004.5
ЮВ 3 20 км н/о +30.0 +15.3 41 +33 +33 душно 1014.4 1004.5
З 4 20 км н/о +31.1 +16.3 41 +34 +34 душно 1013.9 1004.0
З 3 20 км н/о +31.3 +16.1 40 +34 +34 душно 1013.4 1003.5
З 4 20 км н/о +30.3 +16.3 43 +34 +34 очень душно 1013.3 1003.4
З 4 20 км н/о +29.1 +17.0 48 +33 +33 очень душно 1013.3 1003.4
З 4 20 км н/о +29.2 +17.1 48 +33 +33 очень душно 1013.5 1003.6
З 3 20 км н/о +29.1 +17.6 50 +33 +33 очень душно 1014.1 1004.1 +27.9
В 2 20 км н/о +28.4 +18.5 55 +33 +33 очень душно 1014.7 1004.7
В 3 20 км н/о +29.3 +19.0 54 +35 +35 очень душно 1014.7 1004.8
В 3 20 км н/о +30.7 +19.1 50 +36 +36 очень душно 1014.6 1004.7
В 4 20 км н/о +31.6 +18.2 45 +36 +36 очень душно 1014.5 1004.6
В 4 20 км н/о +32.2 +18.4 44 +37 +37 очень душно 1014.4 1004.5
В 3 20 км н/о +32.3 +17.8 42 +36 +36 очень душно 1014.0 1004.2
СВ 4 20 км н/о +34.1 +15.1 32 +36 +36 душно 1013.2 1003.4
ЮВ 2 20 км н/о +34.7 +12.4 26 +35 +35 очень жарко 1012.8 1003.0
Ю 3 20 км н/о +35.3 +11.7 24 +35 +35 очень жарко 1012.3 1002.5 0.0
Ю 3 20 км н/о +35.0 +10.1 22 +34 +34 очень жарко 1011.5 1001.7
ЮЗ 3 20 км н/о +33.4 +7.4 20 +32 +32 жарко 1011.0 1001.2
Ю 2 20 км дымка н/о +31.3 +4.9 19 +29 +29 жарко 1010.9 1001.0 +35.5
Ю 2 20 км н/о +29.6 +1.1 16 +27 +27 жарко 1010.7 1000.7
Ю 3 20 км н/о +27.7 +2.7 20 +26 +26 жарко 1010.9 1000.9
Ю 2 20 км н/о +27.0 +5.9 26 +26 +26 жарко 1011.5 1001.5
СВ 1 20 км н/о +25.8 +7.8 32 +26 +26 жарко 1012.0 1001.9
СЗ 1 20 км н/о +24.5 +10.7 42 +26 +26 жарко 1012.3 1002.2
СЗ 3 20 км н/о +25.1 +4.2 26 +24 +24 комфорт 1011.5 1001.4
СЗ 4 20 км н/о +26.9 +0.6 18 +25 +25 комфорт 1011.1 1001.1
СЗ 4 20 км н/о +27.3 +1.6 19 +25 +25 комфорт 1010.6 1000.6
З 4 20 км н/о +27.6 +4.0 22 +26 +26 жарко 1010.4 1000.4
З 4 20 км н/о +26.4 +5.9 27 +26 +26 жарко 1010.5 1000.5
Ю 2 20 км н/о +24.3 +7.9 35 +25 +25 комфорт 1011.3 1001.2
СЗ 1 20 км дымка н/о +24.6 +13.2 49 +27 +27 жарко 1012.1 1002.0 +23.9 0.0
В 2 20 км н/о +25.3 +14.4 51 +28 +28 жарко 1012.5 1002.4
ЮВ 1 20 км н/о +25.5 +16.4 57 +29 +29 душно 1012.6 1002.5
СЗ 2 20 км н/о +28.0 +16.3 49 +31 +31 душно 1012.3 1002.3
СЗ 3 20 км н/о +28.1 +17.0 51 +32 +32 душно 1012.3 1002.3
В 2 20 км н/о +29.7 +15.4 42 +32 +32 душно 1012.5 1002.6 0.0
ЮВ 2 20 км дымка н/о +30.2 +15.1 40 +33 +33 душно 1012.5 1002.6 0.0
В 3 20 км н/о +31.2 +15.6 39 +34 +34 душно 1011.8 1001.9
В 2 20 км н/о +31.9 +14.1 34 +33 +33 жарко 1011.5 1001.6
З 2 20 км н/о +33.7 +10.3 24 +33 +33 жарко 1011.0 1001.2
ЮЗ 3 20 км н/о +33.7 +10.3 24 +33 +33 жарко 1010.6 1000.8
В 2 20 км н/о +28.8 +17.3 50 +33 +33 очень душно 1010.8 1000.9 0.0
В 2 20 км дымка н/о +27.1 +16.4 52 +31 +31 душно 1011.1 1001.1 +34.1 0.0
З 1 20 км н/о +27.0 +12.2 40 +28 +28 жарко 1011.3 1001.3
ЮЗ 1 20 км н/о +24.5 +11.4 44 +26 +26 жарко 1011.7 1001.6
ЮЗ 2 20 км н/о +24.6 +15.7 58 +24 +24 комфорт 1012.0 1001.9
С 2 17 км н/о +24.1 +9.3 39 +25 +25 комфорт 1012.5 1002.4
СЗ 2 16 км н/о +22.3 +10.1 46 +24 +24 комфорт 1013.0 1002.8
В 1 20 км н/о +21.1 +10.6 51 +23 +23 комфорт 1013.0 1002.8
СЗ 2 20 км н/о +21.2 +7.4 41 +22 +22 комфорт 1012.6 1002.4
З 3 20 км н/о +25.3 -0.7 18 +24 +24 комфорт 1012.1 1002.0
В 3 20 км н/о +23.4 +3.3 27 +23 +23 комфорт 1012.8 1002.6
ЮВ 1 20 км н/о +21.6 +3.7 31 +22 +22 комфорт 1013.4 1003.2
З 1 20 км н/о +20.1 +3.7 34 +22 +22 комфорт 1013.8 1003.5
Ю 1 20 км дымка н/о +21.8 +3.4 30 +22 +22 комфорт 1014.0 1003.8 +19.9 0.0
В 1 20 км н/о +24.7 +6.0 30 +25 +25 комфорт 1014.6 1004.5
ЮВ 2 20 км н/о +25.4 +6.6 30 +25 +25 комфорт 1015.0 1004.9
ЮВ 2 20 км н/о +26.8 +10.1 35 +27 +27 жарко 1014.9 1004.8
В 2 20 км н/о +28.1 +12.0 37 +29 +29 жарко 1015.1 1005.1
В 3 20 км н/о +29.5 +12.4 35 +31 +31 жарко 1015.0 1005.0
ЮВ 3 20 км н/о +29.2 +13.0 37 +31 +31 жарко 1014.7 1004.7
Ю 3 20 км н/о +28.9 +13.9 40 +31 +31 жарко 1014.4 1004.4
ЮВ 3 20 км н/о +29.1 +11.2 33 +30 +30 жарко 1014.1 1004.1
ЮВ 3 20 км н/о +28.0 +11.1 35 +29 +29 жарко 1013.5 1003.5
Ю 2 20 км н/о +29.1 +12.5 36 +30 +30 жарко 1013.1 1003.1
Ю 2 20 км н/о +28.2 +15.8 47 +31 +31 душно 1012.8 1002.8
ЮВ 1 20 км н/о +26.9 +15.3 49 +30 +30 душно 1012.8 1002.8 +30.1
Ю 1 20 км н/о +25.5 +15.5 54 +29 +29 душно 1013.0 1002.9 0.0
З 1 20 км н/о +24.1 +12.7 49 +26 +26 жарко 1013.2 1003.1
З 1 20 км н/о +23.7 +5.6 31 +24 +24 комфорт 1013.8 1003.6 0.0
С 1 20 км н/о +23.6 +4.5 29 +23 +23 комфорт 1014.1 1003.9
ЮЗ 1 20 км н/о +23.8 -1.2 19 +22 +22 комфорт 1014.2 1004.0
З 2 20 км дымка н/о +24.1 -1.7 18 +23 +23 комфорт 1014.3 1004.1
ЮЗ 1 20 км н/о +23.7 +4.6 29 +23 +23 комфорт 1013.9 1003.7
ЮВ 2 20 км н/о +23.9 -0.4 20 +23 +23 комфорт 1013.6 1003.4
В 2 20 км н/о +24.1 -4.2 15 +22 +22 комфорт 1013.7 1003.5
ЮВ 1 20 км н/о +24.1 -2.5 17 +22 +22 комфорт 1014.3 1004.1
СВ 1 20 км н/о +23.1 +3.6 28 +23 +23 комфорт 1014.8 1004.6
СВ 3 20 км [макс. диам. градин 0 мм] ясно +23.1 +7.6 37 +24 +24 комфорт 1015.2 1005.0 +22.7 0.0
С 2 20 км н/о +25.1 +9.0 36 +26 +26 жарко 1015.7 1005.6
В 2 20 км н/о +27.5 +14.2 44 +30 +30 жарко 1015.8 1005.8
В 3 20 км [макс. диам. градин 0 мм] ясно +28.1 +15.7 47 +31 +41 душно 1016.2 1006.2
З 2 20 км н/о +29.7 +14.3 39 +32 +32 душно 1016.1 1006.1
ЮВ 3 20 км н/о +31.0 +12.8 33 +32 +32 жарко 1016.1 1006.2
В 4 20 км [макс. диам. градин 0 мм] ясно +30.6 +14.7 38 +33 +48 душно 1015.8 1005.9 0.0
СВ 3 20 км н/о +31.7 +13.5 33 +33 +33 жарко 1015.6 1005.7
З 4 20 км н/о +31.1 +14.7 37 +33 +33 душно 1015.0 1005.1
З 5 20 км н/о +31.3 +13.1 33 +32 +32 жарко 1014.6 1004.7
З 5 20 км н/о +30.6 +13.4 35 +32 +32 жарко 1014.3 1004.4
З 4 20 км н/о +29.3 +14.7 41 +32 +32 душно 1014.1 1004.1
З 4 20 км дымка н/о +27.9 +14.5 44 +30 +30 жарко 1014.5 1004.5 +32.5
З 2 20 км н/о +26.2 +15.0 50 +29 +29 жарко 1015.2 1005.1
З 2 20 км н/о +25.1 +15.7 56 +28 +28 жарко 1015.3 1005.2
ЮЗ 2 20 км н/о +24.4 +17.4 65 +28 +28 душно 1016.0 1005.9
СЗ 4 20 км н/о +24.5 +17.5 65 +29 +29 душно 1015.9 1005.8
З 2 20 км н/о +24.5 +17.5 65 +29 +29 душно 1016.0 1005.9
З 2 20 км н/о +23.9 +17.2 66 +28 +28 душно 1015.3 1005.2
Ю 3 20 км н/о +25.7 +16.5 57 +29 +29 душно 1014.9 1004.8
В 3 20 км н/о +25.3 +16.7 59 +29 +29 душно 1014.4 1004.3
В 2 20 км н/о +23.9 +16.4 63 +27 +27 жарко 1014.5 1004.4
Ю 2 20 км н/о +23.6 +16.1 63 +27 +27 жарко 1014.7 1004.6
ЮВ 2 20 км н/о +23.2 +16.3 65 +28 +28 душно 1015.0 1004.8
ЮВ 2 25 км [макс. диам. градин 0 мм] ясно +24.2 +16.2 61 +28 +28 душно 1015.4 1005.3 +22.9 0.0
В 1 20 км н/о +26.8 +16.7 54 +30 +30 душно 1015.6 1005.6
Ю 2 20 км н/о +28.8 +16.4 47 +32 +32 душно 1015.7 1005.7
СЗ 4 25 км [макс. диам. градин 0 мм] ясно +30.2 +15.1 40 +33 +40 душно 1015.1 1005.2
З 2 20 км н/о +30.6 +15.5 40 +33 +33 душно 1015.2 1005.3
СВ 3 20 км н/о +31.5 +16.7 41 +35 +35 очень душно 1015.1 1005.2
СЗ 4 25 км [макс. диам. градин 0 мм] ясно +33.3 +14.4 32 +35 +48 душно 1014.9 1005.1
СЗ 4 20 км н/о +33.7 +15.2 33 +36 +36 очень душно 1014.6 1004.8
СЗ 4 20 км н/о +34.8 +14.7 30 +36 +36 душно 1014.0 1004.2
СЗ 3 20 км н/о +35.0 +14.3 29 +36 +36 очень жарко 1013.4 1003.6 0.0
СЗ 3 20 км н/о +35.5 +14.2 28 +36 +36 очень жарко 1012.6 1002.9
З 2 20 км н/о +33.6 +11.4 26 +33 +33 жарко 1012.3 1002.5
З 2 20 км дымка н/о +31.6 +10.3 27 +31 +31 жарко 1012.3 1002.4 +35.6
З 2 20 км н/о +30.2 +9.1 27 +30 +30 жарко 1012.6 1002.7
З 2 20 км н/о +28.4 +9.1 30 +28 +28 жарко 1013.0 1003.0
ЮВ 1 20 км н/о +26.6 +11.5 39 +28 +28 жарко 1013.7 1003.6
Ю 2 18 км н/о +26.7 +11.2 38 +28 +28 жарко 1013.8 1003.7
ЮЗ 2 20 км н/о +25.9 +10.1 37 +27 +27 жарко 1014.1 1004.0
Ю 2 20 км н/о +25.9 +10.9 39 +27 +27 жарко 1014.1 1004.0
Ю 2 20 км н/о +23.7 +12.0 48 +25 +25 комфорт 1014.6 1004.4
З 1 19 км н/о +22.5 +12.1 52 +25 +25 комфорт 1014.5 1004.3
СЗ 2 20 км н/о +21.6 +12.4 56 +24 +24 комфорт 1014.5 1004.3
СВ 1 20 км [макс. диам. градин 0 мм] ясно +21.4 +15.2 68 +25 +25 комфорт 1015.5 1005.3 +20.9 0.0
СВ 3 20 км н/о +22.8 +16.6 68 +27 +27 душно 1015.8 1005.6
СВ 2 20 км н/о +23.5 +17.9 71 +28 +28 душно 1016.7 1006.5
С 2 20 км [макс. диам. градин 0 мм] ясно +23.6 +18.5 73 +28 +39 душно 1017.1 1006.9
В 3 20 км н/о +25.7 +18.1 63 +30 +30 душно 1017.3 1007.2
СВ 4 20 км н/о +24.5 +20.0 76 +30 +30 очень душно 1017.5 1007.4
СВ 4 20 км [макс. диам. градин 0 мм] 9/0
[As op Cs]
+24.7 +20.8 79 +31 +38 очень душно 1017.3 1007.2
СВ 3 14 км н/о +23.6 +21.5 88 +30 +30 очень душно 1017.2 1007.1
Местоположение метеостанции Сеута (Испания): широта 35.90 долгота -5.34 высота над уровнем моря 2 м.
В архиве по умолчанию представлена погода в Сеуте за последнюю неделю. Архивные данные за месяц целиком и за предыдущие месяцы, начиная с января 2011 года, Вы можете получить, выбрав интересующий диапазон дат из раскрывающегося списка и нажав кнопку "Найти!".
*Определитесь, кто Вы:
Внимание! Время в таблицах - всемирное. Для получения местного времени необходимо прибавить поправку, которая равна 0 ч.
Некоторые строки с данными для отдельных станций могут быть выделены курсивом. Это означает, что фактические данные отсутствуют по различным причинам, а приведенные значения являются расчетными модельными данными для данного пункта наблюдений.
Смотрите также архив погоды в соседних городах и на ближайших метеорологических станциях:
Партнеры нашего сайта:      
Пояснения к столбцам:
  • Ветер - указаны скорость ветра в м/с - средняя за 10 мин, порывы в срок и между сроками (в фигурных скобках) и направление, откуда дует ветер: С - северный,
  • СВ - северо-восточный, В - восточный, ЮВ - юго-восточный, Ю - южный, ЮЗ - юго-западный, З - западный, СЗ - северо-западный.
  • Видимость - горизонтальная дальность видимости в метрах или километрах. При видимости от 1 до 10 км при отсутствии осадков обычно наблюдается дымка, при ухудшении видимости до 1 км и менее - туман. В сухую погоду видимость может ухудшаться дымом, пылью или мглою.
  • Явления - указаны атмосферные явления, наблюдавшиеся в срок или в последний час перед сроком; фигурными скобками обозначены явления, наблюдавшиеся между сроками (за 1-3 часа до срока); квадратными скобками обозначены град или гололедные отложения с указанием их диаметра в мм.
  • Облачность - указаны через наклонную черту общая и нижняя облачность в баллах и высота нижней границы облаков в метрах; квадратными скобками обозначены формы облаков: Ci - перистые, Cs - перисто-слоистые, Cc - перисто-кучевые, Ac - высококучевые, As - высокослоистые, Sc - слоисто-кучевые, Ns - слоисто-дождевые, Cu - кучевые, Cb - кучево-дождевые. Подробнее классификацию облаков см. в Атласе облаков (PDF).
  • T - Температура воздуха - температура, измеренная на высоте 2 м над землей.
  • Td - Температура точки росы - температура, при понижении до которой содержащийся в воздухе водяной пар достигнет насыщения.
  • f - Относительная влажность воздуха - влажноcть воздуха, измеренная на высоте 2 м над землей.
  • Te - Эффективная температура - температура, которую ощущает одетый по сезону человек в тени. Характеристика душности погоды. При расчете учитывается влияние влажности воздуха и скорости ветра на теплоощущения человека.
  • Tes - Эффективная температура на солнце - температура, которую ощущает человек, с поправкой на солнечный нагрев. Характеристика знойности погоды. Зависит от высоты солнца над горизонтом, облачности и скорости ветра. Ночью, в пасмурную погоду, а также при ветре 12 м/с и более поправка равна нулю.
  • P - Атмосферное давление - приведенное к уровню моря атмосферное давление.
  • Po - Атмосферное давление - измеренное на уровне метеостанции атмосферное давление.
  • Tmin - Минимальная температура - минимум температуры воздуха на высоте 2 м над землей.
  • Tmax - Максимальная температура - максимум температуры воздуха на высоте 2 м над землей.
  • R - Количество осадков - Количество выпавших осадков за период времени, мм. При наведении курсора мыши на число - период времени, за который выпало указанное количество осадков.
  • R24 - Количество осадков - Количество выпавших осадков за 24 часа, мм.
  • S - Снежный покров - Высота снежного покрова, см. При наведении курсора мыши на число - состояние снежного покрова и степень покрытия местности в баллах.